Home > Weather > Stavern > Past weeks

Flag for Norway Weather for the Past 2 Weeks in Stavern, Norway

Now
37 °F

Drizzle. Fog.


Feels Like: 35 °F
Forecast: 39 / 42 °F
Wind: 3 mph from Southeast

Location: Torp

Current Time: Feb 6, 2016 at 9:57:31 PM

Latest Report: Feb 6, 2016 at 9:20 PM


Visibility: 0 mi

Pressure: 29.45 "Hg

Humidity: 100%

Dew point: 37 °F

Location of StavernLocation

Historic Weather in Stavern — Graph

°F

Stavern Temperature Yesterday

Maximum temperature yesterday: 37 °F (at 11:50 PM)
Minimum temperature yesterday: 28 °F (at 2:50 AM)
Average temperature yesterday: 32 °F

High & Low Weather Summary for the Past Weeks

 TemperatureHumidityPressure
High45 °F (Jan 29, 4:20 PM)100% (Jan 22, 8:20 PM)30.18 "Hg (Jan 22, 8:20 PM)
Low18 °F (Jan 22, 8:20 PM)41% (Feb 4, 12:20 PM)28.74 "Hg (Feb 2, 6:20 PM)
Average35 °F86%29.51 "Hg
* Reported Jan 22 8:20 PM — Feb 6 8:20 PM, Stavern, Weather by CustomWeather, © 2016

Note: Actual official high and low records may vary slightly from our data, if they occured in-between our weather recording intervals... More about our weather records

Advertising

Stavern Weather History for the Previous 24 Hours

 ConditionsComfort  
Time TempWeatherWind HumidityBarometerVisibility
8:20 PM
Sat, Feb 6
37 °FDrizzle. Dense fog.6 mph100%29.47 "Hg1 mi
7:50 PM37 °FFog.9 mph100%29.47 "Hg3 mi
7:20 PM37 °FPassing clouds.9 mph100%29.47 "Hg6 mi
6:50 PM37 °FClear.7 mph100%29.47 "Hg10 mi
6:20 PM37 °FClear.7 mph100%29.50 "Hg10 mi
5:50 PM37 °FClear.12 mph100%29.50 "Hg10 mi
5:20 PM39 °FPassing clouds.12 mph100%29.50 "HgN/A
4:50 PM37 °FPassing clouds.7 mph100%29.50 "HgN/A
4:20 PM39 °FPassing clouds.8 mph100%29.50 "HgN/A
3:50 PM39 °FPassing clouds.10 mph100%29.50 "HgN/A
3:20 PM41 °FScattered clouds.10 mph100%29.47 "HgN/A
2:50 PM41 °FPartly sunny.13 mph100%29.47 "Hg6 mi
2:20 PM41 °FPartly sunny.9 mph100%29.47 "Hg6 mi
1:50 PM41 °FPartly sunny.12 mph100%29.47 "Hg6 mi
1:20 PM41 °FPartly sunny.12 mph100%29.47 "Hg6 mi
12:50 PM41 °FLow clouds.14 mph100%29.47 "Hg5 mi
12:20 PM41 °FBroken clouds.16 mph100%29.47 "Hg4 mi
11:50 AM41 °FFog.17 mph100%29.45 "Hg4 mi
11:20 AM41 °FLight rain. Fog.20 mph100%29.45 "Hg3 mi
10:50 AM41 °FLight rain. Fog.22 mph100%29.45 "Hg2 mi
10:20 AM43 °FLight rain. Fog.23 mph100%29.45 "Hg3 mi
9:50 AM43 °FLight rain. Fog.24 mph100%29.47 "Hg2 mi
9:20 AM43 °FRain. Low clouds.22 mph100%29.47 "Hg4 mi
8:50 AM43 °FRain. Fog.22 mph100%29.45 "Hg3 mi
8:20 AM43 °FLight rain. Fog.22 mph100%29.47 "Hg2 mi
7:50 AM43 °FLight rain. Fog.23 mph100%29.47 "Hg1 mi
7:20 AM41 °FLight rain. Fog.20 mph100%29.47 "Hg2 mi
6:50 AM41 °FFog.22 mph100%29.50 "Hg1 mi
6:20 AM41 °FFog.21 mph100%29.50 "Hg2 mi
5:50 AM41 °FFog.22 mph100%29.53 "Hg1 mi
4:50 AM41 °FLight rain. Low clouds.17 mph100%29.56 "Hg2 mi
4:20 AM41 °FFog.15 mph100%29.59 "Hg1 mi
3:50 AM41 °FDrizzle. Low clouds.14 mph100%29.59 "Hg1 mi
3:20 AM39 °FDrizzle. Low clouds.15 mph100%29.62 "Hg1 mi
2:50 AM39 °FDrizzle. Low clouds.14 mph100%29.62 "Hg0 mi
2:20 AM39 °FFog.12 mph100%29.65 "Hg0 mi
1:20 AM39 °FDrizzle. Low clouds.13 mph100%29.65 "Hg0 mi
12:50 AM39 °FLight rain. Low clouds.13 mph100%29.68 "Hg0 mi
12:20 AM39 °FFog.8 mph100%29.68 "Hg0 mi
11:50 PM
Fri, Feb 5
37 °FLight rain. Dense fog.7 mph100%29.68 "Hg0 mi
11:20 PM36 °FFog.8 mph100%29.71 "Hg0 mi
10:50 PM36 °FDrizzle. Fog.7 mph100%29.71 "Hg0 mi
10:20 PM36 °FFog.7 mph100%29.71 "Hg0 mi
9:50 PM36 °FFog.8 mph100%29.74 "Hg0 mi
9:20 PM36 °FLight rain. Fog.8 mph100%29.74 "Hg0 mi
Weather by CustomWeather, © 2016

See weather overviewHow to use our weather pages